• MPC Preparation (Info)

  • MPEC 2023-K105 : 2023 JQ6

    The following Minor Planet Electronic Circular may be linked-to from your own Web pages, but must not otherwise be redistributed electronically.

    A form allowing access to any MPEC is at the bottom of this page.


    Read MPEC 2023-K104 Read MPEC 2023-K106


    M.P.E.C. 2023-K105                                 Issued 2023 May 22, 18:20 UT
    
         The Minor Planet Electronic Circulars contain information on unusual
             minor planets, routine data on comets and natural satellites,
             and occasional editorial announcements.  They are published
        on behalf of Division F of the International Astronomical Union by the
              Minor Planet Center, Smithsonian Astrophysical Observatory,
                              Cambridge, MA 02138, U.S.A.
    			  
                 Prepared using the Tamkin Foundation Computer Network
    
                                  MPC@CFA.HARVARD.EDU
                URL https://www.minorplanetcenter.net/    ISSN 1523-6714
    
                                    2023 JQ6                                 
    
    
    Observations:
         K23J06Q* C2023 05 14.47022615 00 46.253+12 56 40.41         21.53wXEK105F51
         K23J06Q  C2023 05 14.48139515 00 45.620+12 56 44.19         21.71wXEK105F51
         K23J06Q  C2023 05 14.49843915 00 44.665+12 56 49.86         21.27wXEK105F51
         K23J06Q  C2023 05 15.47675114 59 56.960+13 02 14.17         21.91wXEK105F51
         K23J06Q  C2023 05 15.50081714 59 55.604+13 02 21.25         21.62wXEK105F51
         K23J06Q  C2023 05 15.51290214 59 54.915+13 02 24.68         21.79wXEK105F51
         K23J06Q  C2023 05 22.28140314 54 24.159+13 20 51.83         21.84wXEK105F51
         K23J06Q  C2023 05 22.29366714 54 23.480+13 20 52.15         21.71wXEK105F51
         K23J06Q  C2023 05 22.30591314 54 22.805+13 20 52.22         22.07wXEK105F51
         K23J06Q KC2023 05 22.35350614 54 19.130+13 20 48.34         21.75GVEK105V06
         K23J06Q KC2023 05 22.35709114 54 18.943+13 20 48.16         21.56GVEK105V06
         K23J06Q KC2023 05 22.36067314 54 18.738+13 20 48.19         21.52GVEK105V06
         K23J06Q KC2023 05 22.36425814 54 18.547+13 20 48.16         21.44GVEK105V06
         K23J06Q  C2023 05 22.41764014 54 16.490+13 20 53.33         21.71GVEK105F51
         K23J06Q  C2023 05 22.41827914 54 16.459+13 20 53.26         21.54GVEK105F51
    
    Observer details:
    F51 Pan-STARRS 1, Haleakala.  Observers J. Bulger, T. Lowe, A. Schultz, I.
        Smith, P. Minguez, K. Chambers.  Measurers K. Chambers, S. Chastel, T. de
        Boer, J. Fairlamb, H. Gao, M. Huber, C.-C. Lin, E. Magnier, Y.
        Ramanjooloo, R. Wainscoat, R. Weryk, J. Bulger, T. Lowe, P. Minguez, A.
        Schultz, I. Smith.  1.8-m Ritchey-Chretien + CCD.
    V06 Catalina Sky Survey-Kuiper.  Observer J. B. Fazekas.  Measurers E. J.
        Christensen, D. Fay, J. B. Fazekas, D. C. Fuls, A. R. Gibbs, A. D. Grauer,
        H. Groeller, J. K. Hogan, R. A. Kowalski, S. M. Larson, G. J. Leonard, D.
        Rankin, R. L. Seaman, A. Serrano, F. C. Shelly, K. W. Wierzchos.  1.55-m
        reflector + 1K CCD.
    
    Orbital elements:
    2023 JQ6                                                 Earth MOID = 0.1613 AU
    Epoch 2023 Feb. 25.0 TT = JDT 2460000.5                 Alexandersen            
    M 311.70932              (2000.0)            P               Q                  
    n   0.31894032     Peri.  173.31972     +0.32696398     +0.93384204             
    a   2.1215980      Node   115.68206     -0.87433076     +0.35716126             
    e   0.4450009      Incl.    9.26072     -0.35866459     -0.01936174             
    P   3.09           H   21.88          G   0.15           U   9                  
    Residuals in seconds of arc
    230514 F51  0.0   0.0     230515 F51  0.1-  0.1-    230522 V06  0.1+  0.1-
    230514 F51  0.0   0.0     230522 F51  0.1-  0.1+    230522 V06  0.0   0.0
    230514 F51  0.0   0.1-    230522 F51  0.1-  0.1+    230522 V06  0.0   0.0
    230515 F51  0.0   0.2+    230522 F51  0.1-  0.1-    230522 F51  0.1-  0.0
    230515 F51  0.1+  0.0     230522 V06  0.0   0.1+    230522 F51  0.0   0.1-
    
    Ephemeris:
    2023 JQ6                 a,e,i = 2.12, 0.45, 9                   q = 1.1775
    Date    TT    R. A. (2000) Decl.     Delta      r    Elong.  Phase     V
    2023 04 22    15 13 55.1 +08 49 49   0.5523  1.5141   151.7    18.3    22.4
    ...
    2023 05 07    15 06 28.7 +11 56 43   0.4624  1.4317   151.3    19.8    22.0
    ...
    2023 05 15    15 00 20.9 +12 59 44   0.4265  1.3901   147.8    22.8    21.8
    ...
    2023 05 21    14 55 25.3 +13 20 06   0.4042  1.3604   144.2    25.8    21.8
    2023 05 22    14 54 36.8 +13 20 51   0.4008  1.3555   143.5    26.4    21.7
    2023 05 23    14 53 49.0 +13 20 49   0.3976  1.3507   142.9    26.9    21.7
    ...
    2023 05 29    14 49 23.7 +13 03 01   0.3798  1.3229   138.8    30.3    21.7
    ...
    2023 06 06    14 45 04.9 +11 50 15   0.3601  1.2886   133.3    34.9    21.7
    ...
    2023 06 21    14 44 52.2 +06 58 41   0.3325  1.2346   124.3    42.8    21.6
    
    M. P. C. Staff               (C) Copyright 2023 MPC           M.P.E.C. 2023-K105
    


    Read MPEC 2023-K104 Read MPEC 2023-K106


    MPEC number:

    Enter an MPEC number in one of the following forms:

    • 1997-B01 (the full form)
    • J97B01 (the packed version of the full form)
    • B01 (the abbreviated form)